Date,TemperatureHighF,TemperatureAvgF,TemperatureLowF,DewpointHighF,DewpointAvgF,DewpointLowF,HumidityHigh,HumidityAvg,HumidityLow,PressureMaxIn,PressureMinIn,WindSpeedMaxMPH,WindSpeedAvgMPH,GustSpeedMaxMPH,PrecipitationSumIn
2013-1-1,80,63,49,63,58,49,99,83,52,30.03,29.85,12,3,0,0.00
2013-1-2,81,68,57,67,63,57,99,84,55,29.89,29.79,7,2,0,0.00
2013-1-3,73,65,58,67,63,58,99,94,79,29.97,29.85,12,4,0,0.00
2013-1-4,67,65,62,66,64,61,99,97,94,30.07,29.94,11,7,0,0.01
2013-1-5,76,68,61,69,64,58,99,88,69,30.08,29.98,12,6,0,0.09
2013-1-6,77,70,60,71,68,60,99,93,80,30.00,29.86,12,3,0,0.52
2013-1-7,72,68,63,68,65,62,99,89,78,30.00,29.90,15,8,0,0.00
2013-1-8,78,72,68,71,69,67,99,92,73,30.02,29.91,9,4,0,0.51
2013-1-9,81,74,70,73,71,68,99,92,76,30.09,29.99,14,6,0,0.00
2013-1-10,81,74,65,71,69,65,99,87,71,30.10,30.00,13,5,0,0.00
2013-1-11,79,72,64,71,68,64,99,89,70,30.05,29.94,13,5,0,0.00
2013-1-12,71,69,68,69,68,66,99,95,87,29.96,29.89,5,2,0,0.00
2013-1-13,80,72,64,67,66,63,99,81,60,29.93,29.85,11,5,0,0.00
2013-1-14,80,70,57,68,65,57,99,86,66,29.97,29.90,12,4,0,0.00
2013-1-15,80,71,62,70,66,62,99,87,70,29.93,29.84,16,4,0,0.00
2013-1-16,82,70,57,69,65,57,99,86,55,29.89,29.79,10,3,0,0.00
2013-1-17,85,69,55,70,62,48,99,82,50,29.87,29.69,18,6,0,0.00
2013-1-18,71,59,44,62,51,37,92,76,61,30.03,29.87,24,10,0,0.17
2013-1-19,72,68,65,66,64,59,98,86,74,30.04,29.91,20,12,0,0.44
2013-1-20,74,68,65,68,66,64,97,90,80,29.94,29.83,15,9,0,0.10
2013-1-21,76,68,64,68,64,61,99,91,74,29.87,29.77,12,4,0,0.05
2013-1-22,69,62,52,61,52,46,87,69,49,30.05,29.82,22,9,0,0.01
2013-1-23,68,58,48,53,47,38,99,69,55,30.12,30.04,13,6,0,0.00
2013-1-24,72,56,44,53,48,42,99,77,43,30.10,30.00,11,3,0,0.00
2013-1-25,75,60,49,58,54,49,99,83,46,30.08,29.95,9,3,0,0.00
2013-1-26,73,60,47,59,53,46,99,80,52,30.05,29.94,10,3,0,0.00
2013-1-27,75,64,49,67,59,48,99,86,58,30.08,29.99,17,4,0,0.06
2013-1-28,75,71,69,69,67,64,99,88,76,30.10,30.01,13,7,0,0.00
2013-1-29,79,70,59,71,66,59,99,89,71,30.02,29.89,14,5,0,0.00
2013-1-30,85,73,64,68,65,62,99,79,51,29.89,29.68,18,5,0,0.00
2013-1-31,69,61,51,68,49,32,99,68,30,29.97,29.67,12,6,0,0.17
2013-2-1,67,54,40,47,38,31,99,58,36,30.09,29.96,14,5,0,0.00
2013-2-2,71,56,39,53,48,39,99,76,49,30.05,29.89,11,4,0,0.00
2013-2-3,74,58,48,52,46,35,99,68,36,29.95,29.82,11,4,0,0.00
2013-2-4,70,56,42,50,45,40,99,70,40,29.89,29.79,8,3,0,0.00
2013-2-5,76,59,42,57,49,39,99,74,41,29.86,29.76,15,3,0,0.00
2013-2-6,78,66,53,68,61,52,99,85,63,29.88,29.78,9,4,0,0.00
2013-2-7,79,70,58,69,64,58,99,82,63,29.85,29.66,15,6,0,0.00
2013-2-8,82,69,61,66,63,58,99,82,46,29.83,29.63,10,4,0,0.00
2013-2-9,73,66,55,62,60,55,99,82,64,29.96,29.82,15,6,0,0.00
2013-2-10,78,71,67,61,59,56,75,65,54,30.04,29.95,18,10,0,0.00
2013-2-11,79,74,68,66,64,60,86,73,57,29.98,29.85,15,8,0,0.00
2013-2-12,86,73,59,70,66,59,99,81,47,29.87,29.70,11,4,0,0.00
2013-2-13,88,75,65,71,67,60,99,79,46,29.74,29.59,13,6,0,0.01
2013-2-14,74,64,60,67,62,59,99,92,72,29.81,29.70,11,4,0,1.26
2013-2-15,70,62,57,61,59,57,99,92,73,29.83,29.70,7,3,0,0.06
2013-2-16,70,60,48,60,47,29,99,66,35,29.84,29.65,15,6,0,0.04
2013-2-17,54,46,38,38,22,15,66,41,24,30.10,29.85,18,7,0,0.00
2013-2-18,69,54,40,51,39,23,92,58,45,30.11,29.99,11,4,0,0.00
2013-2-19,80,64,46,60,53,46,99,72,43,29.98,29.82,10,3,0,0.00
2013-2-20,73,64,54,64,60,54,99,86,69,29.89,29.79,13,5,0,0.00
2013-2-21,80,71,61,68,66,61,99,86,65,29.87,29.78,12,4,0,0.00
2013-2-22,81,72,60,73,69,60,99,91,75,29.86,29.78,17,6,0,0.00
2013-2-23,89,76,64,72,68,63,99,79,48,29.81,29.63,12,3,0,0.00
2013-2-24,84,74,70,71,69,67,95,86,57,29.74,29.65,10,4,0,0.00
2013-2-25,86,76,67,74,70,66,99,85,53,29.68,29.55,11,5,0,0.00
2013-2-26,74,74,74,71,71,71,89,89,89,29.58,29.55,5,5,0,0.00
2013-3-1,64,57,54,44,37,-100,62,50,37,29.74,29.67,8,-20,0,0.00
2013-3-2,62,52,40,42,35,29,84,53,33,29.79,29.69,15,7,0,0.00
2013-3-3,57,47,39,37,33,30,90,60,42,29.92,29.73,13,7,0,0.00
2013-3-4,62,49,30,46,34,22,98,61,23,30.00,29.89,15,5,0,0.00
2013-3-5,72,49,38,58,45,38,99,87,62,29.95,29.81,5,2,0,0.00
2013-3-8,68,65,61,51,47,44,70,54,44,29.97,29.89,10,7,0,0.00
2013-3-9,74,63,48,55,52,47,97,69,48,29.99,29.88,12,5,0,0.00
2013-3-10,77,69,62,60,57,53,82,66,50,29.94,29.86,13,6,0,0.00
2013-3-11,77,68,54,64,60,54,99,76,52,29.89,29.71,16,6,0,0.00
2013-3-12,76,68,61,71,65,58,98,88,80,29.77,29.64,13,5,0,0.18
2013-3-13,72,60,51,58,51,45,99,74,42,29.91,29.76,15,6,0,0.00
2013-3-14,64,56,47,49,43,36,92,63,46,30.00,29.89,18,8,0,0.00
2013-3-15,69,56,41,45,42,39,97,64,35,30.04,29.93,11,4,0,0.00
2013-3-16,78,60,41,56,49,41,99,72,31,29.96,29.83,14,5,0,0.00
2013-3-17,72,64,47,58,54,47,99,73,54,29.92,29.78,11,6,0,0.00
2013-3-18,80,72,66,66,61,58,93,70,59,29.84,29.67,12,8,0,0.00
2013-3-19,81,70,61,68,65,61,99,86,61,29.77,29.66,11,4,0,0.00
2013-3-20,80,72,63,71,66,58,99,82,59,29.73,29.55,12,4,0,0.00
2013-3-21,70,60,46,58,46,33,98,66,28,29.72,29.59,14,5,0,0.00
2013-3-22,78,57,42,56,48,42,99,77,43,29.79,29.66,13,4,0,0.00
2013-5-6,84,76,64,56,52,47,66,45,32,29.75,29.65,13,6,0,0.00
2013-5-7,63,52,50,52,51,50,99,96,69,29.77,29.73,3,0,0,0.00
2013-5-8,50,50,50,50,50,50,99,99,99,29.77,29.77,0,0,0,0.00